Погода в Хозникове

Россия / Ивановская область     56°48′14″N   41°07′07″E
темп.,
°C
ветер,
м/с
пор.,
м/с
влажн.,
%
обл.,
%
осадки,
мм/ч
давл.,
гПа
погр.,
м
20 апреля, вт
вт2000:00+2всв4126168 0.0 1028468
03:00+1в41262100 0.0 1027500
06:000в4116936 0.0 1027397
09:00+5вюв51051100 0.0 1026672
12:00+9вюв61042100 0.0 10241415
15:00+11вюв61142100 0.0 10221775
18:00+9вюв51145100 0.0 10211708
21:00+7вюв51351100 0.1 10191300
21 апреля, ср
ср2100:00+6вюв61354100 0.1 10161127
03:00+1в61897100 2.6 1012801
06:00+3вюв81891100 3.8 10071133
09:00+5вюв81787100 3.9 10051071
12:00+7юв71589100 0.6 10041136
15:00+7ююв61392100 1.4 10031365
18:00+4ююз4989100 0.6 1007916
21:00+4ююз41090100 0.7 1010669
22 апреля, чт
чт2200:00+4ююз4992100 0.1 1011698
03:00+4ююз4992100 0.1 1012601
06:00+4ююз4893100 0.0 1014651
09:00+4ююз3796100 0.3 1015480
12:00+7ююз4679100 0.1 1016807
15:00+10ю4765100 0.1 10161357
18:00+9ю37715 0.1 1017472
21:00+5ююв399040 0.1 1018197
23 апреля, пт
пт2300:00+4ююв31093100 0.0 1018203
03:00+4ююв28955 0.0 1018149
06:00+4ююв399548 0.0 1018232
09:00+11ююв48765 0.0 1017500
12:00+15ю47575 0.0 10171345
15:00+16ю575232 1.3 10161564
18:00+15ю5115899 0.6 1015687
21:00+12ююв41268100 0.6 1015491
24 апреля, сб
сб2400:00+11ююв412745 0.0 1015417
03:00+8юв311845 0.0 1013307
06:00+8юв412845 0.0 1012380
09:00+13юв5126591 0.1 1011818
12:00+16ююв61152100 0.7 10091983
15:00+13юз4868100 3.3 1008987
18:00+8зсз3486100 0.9 1008449
21:00+4зсз4894100 7.8 1010515